CW0566 Weather Reports


Display with metric or nautical units.
time (UTC)temp
F
wind
direction
speed
MPH
gust
MPH
rain 1hr
in
rain 24hr
in
rain mn
in
humidity
%
barometer
mb
20260507103016 51 0.0 2.0 0.00 0.01 0.01 90 1011.0
20260507102015 51 0.0 1.0 0.00 0.01 0.01 89 1010.8
20260507101015 51 315 1.0 2.0 0.00 0.01 0.01 88 1010.8
20260507100056 51 0.0 1.0 0.00 0.01 0.01 88 1010.6
20260507095016 51 315 1.0 2.0 0.00 0.01 0.01 88 1010.6
20260507094016 51 315 1.0 3.0 0.00 0.01 0.01 88 1010.7
20260507093015 51 315 1.0 4.0 0.00 0.01 0.01 88 1010.7
20260507092016 51 0.0 1.0 0.00 0.01 0.01 88 1010.7
20260507091015 51 0.0 2.0 0.00 0.01 0.01 88 1010.5
20260507090015 51 315 1.0 3.0 0.00 0.01 0.01 88 1010.2
20260507085015 51 315 1.0 4.0 0.00 0.01 0.01 88 1010.3
20260507084018 51 315 1.0 4.0 0.00 0.01 0.01 88 1010.4
20260507083038 51 315 2.0 5.0 0.00 0.01 0.01 89 1010.3
20260507082017 51 315 2.0 6.0 0.00 0.01 0.01 89 1010.4
20260507081017 51 315 3.0 9.0 0.00 0.01 0.01 90 1010.2
20260507080017 51 315 2.0 8.0 0.00 0.01 0.01 91 1010.1
20260507075017 51 315 2.0 5.0 0.00 0.01 0.01 91 1010.2
20260507074017 51 315 3.0 6.0 0.00 0.01 0.01 90 1010.1
20260507073017 51 315 3.0 6.0 0.00 0.01 0.01 90 1010.3
20260507072018 51 315 3.0 11.0 0.00 0.01 0.01 89 1010.3
20260507071017 51 315 5.0 13.0 0.00 0.01 0.01 89 1010.4
20260507070017 51 315 3.0 9.0 0.00 0.01 0.01 90 1010.4
20260507065018 52 315 2.0 13.0 0.00 0.01 0.01 90 1010.9
20260507064017 52 315 2.0 6.0 0.01 0.01 0.01 90 1010.2
20260507063018 53 315 3.0 6.0 0.01 0.01 0.01 90 1010.0
20260507062017 54 315 2.0 5.0 0.01 0.01 0.01 90 1010.2
20260507061017 55 315 3.0 5.0 0.01 0.01 0.01 88 1009.9
20260507060018 56 23 4.0 10.0 0.01 0.01 0.01 87 1009.9
20260507055017 57 315 3.0 8.0 0.01 0.01 0.01 85 1009.8
20260507054017 58 315 5.0 11.0 0.00 0.00 0.00 83 1009.8
20260507053017 59 315 3.0 10.0 0.00 0.00 0.00 82 1009.4
20260507052037 60 90 3.0 10.0 0.00 0.00 0.00 84 1009.4
20260507051018 61 68 3.0 7.0 0.00 0.00 0.00 84 1009.4
20260507050037 61 68 3.0 7.0 0.00 0.00 0.00 84 1009.5
20260507045017 63 90 3.0 8.0 0.00 0.00 0.00 85 1008.9
20260507044017 63 45 1.0 6.0 0.00 0.00 0.00 86 1008.8
20260507043017 63 248 1.0 2.0 0.00 0.00 0.00 85 1009.0
20260507042017 64 0.0 2.0 0.00 0.00 0.00 85 1008.8
20260507041017 64 0.0 2.0 0.00 0.00 0.00 85 1008.8
20260507040017 64 338 1.0 3.0 0.00 0.00 0.00 85 1008.8
20260507035016 64 0 1.0 4.0 0.00 0.00 0.00 86 1008.6
20260507034036 65 23 2.0 7.0 0.00 0.00 0.00 88 1009.0
20260507033016 65 0 2.0 6.0 0.00 0.00 0.00 89 1009.0
20260507032036 65 315 2.0 3.0 0.00 0.00 0.00 88 1008.8
20260507031035 65 293 2.0 3.0 0.00 0.00 0.00 88 1008.2
20260507030036 65 0.0 3.0 0.00 0.00 0.00 87 1008.4
20260507025015 65 315 1.0 4.0 0.00 0.00 0.00 87 1008.6
20260507024037 65 315 1.0 3.0 0.00 0.00 0.00 87 1008.7
20260507023017 65 0.0 2.0 0.00 0.00 0.00 87 1008.5
20260507022017 65 293 1.0 2.0 0.00 0.00 0.00 87 1008.5
20260507021017 65 0.0 2.0 0.00 0.00 0.00 87 1008.8
20260507020037 65 0.0 2.0 0.00 0.00 0.00 86 1008.9
20260507015018 66 270 1.0 3.0 0.00 0.00 0.00 86 1008.7
20260507014017 66 293 1.0 4.0 0.00 0.00 0.00 86 1008.7
20260507013039 66 293 1.0 5.0 0.00 0.00 0.00 85 1008.6
20260507012017 66 293 2.0 4.0 0.00 0.00 0.00 85 1008.8
20260507011037 66 315 2.0 5.0 0.00 0.00 0.00 85 1008.8
20260507010017 66 270 2.0 4.0 0.00 0.00 0.00 85 1008.7
20260507005018 66 270 2.0 5.0 0.00 0.00 0.00 84 1008.9
20260507004017 67 315 1.0 3.0 0.00 0.00 0.00 84 1009.0
20260507003017 67 338 1.0 8.0 0.00 0.00 0.00 82 1008.4
20260507002017 67 0.0 2.0 0.00 0.00 0.00 82 1008.1
20260507001017 68 248 2.0 6.0 0.00 0.00 0.00 81 1008.0
20260507000017 68 0 1.0 4.0 0.00 0.00 0.00 81 1008.1
20260506235038 68 270 4.0 9.0 0.00 0.00 0.00 81 1008.1
20260506234017 68 315 3.0 8.0 0.00 0.00 0.00 80 1008.1
20260506233038 69 315 3.0 9.0 0.00 0.00 0.00 79 1007.9
20260506232037 69 315 2.0 6.0 0.00 0.00 0.00 79 1007.9
20260506231017 69 315 4.0 11.0 0.00 0.00 0.00 78 1008.0
20260506230017 70 270 3.0 9.0 0.00 0.00 0.00 78 1008.0
20260506225017 70 293 5.0 10.0 0.00 0.00 0.00 77 1008.0
20260506224017 70 293 4.0 10.0 0.00 0.00 0.00 77 1008.0
20260506223017 70 293 5.0 14.0 0.00 0.00 0.00 77 1007.8
20260506222017 71 315 4.0 10.0 0.00 0.00 0.00 76 1007.7
20260506221016 72 270 5.0 10.0 0.00 0.00 0.00 76 1007.8
20260506220017 71 315 5.0 14.0 0.00 0.00 0.00 77 1007.8
20260506215017 70 270 5.0 10.0 0.00 0.00 0.00 78 1007.7
20260506214017 70 270 5.0 12.0 0.00 0.00 0.00 78 1007.7
20260506213037 70 315 4.0 9.0 0.00 0.00 0.00 78 1007.8
20260506212038 70 270 6.0 11.0 0.00 0.00 0.00 78 1007.7
20260506211037 70 315 6.0 11.0 0.00 0.00 0.00 79 1007.5
20260506210017 69 315 5.0 10.0 0.00 0.00 0.00 79 1007.6
20260506205016 69 270 5.0 15.0 0.00 0.00 0.00 79 1007.5
20260506204017 69 315 7.0 15.0 0.00 0.00 0.00 78 1007.4
20260506203038 69 270 7.0 16.0 0.00 0.00 0.00 78 1007.3
20260506202016 69 270 5.0 11.0 0.00 0.00 0.00 78 1007.2
20260506201037 69 315 8.0 15.0 0.00 0.00 0.00 78 1007.3
20260506200017 68 315 8.0 17.0 0.00 0.00 0.00 78 1007.6
20260506195017 68 315 7.0 20.0 0.00 0.00 0.00 79 1007.6
20260506194016 68 270 6.0 14.0 0.00 0.00 0.00 79 1007.7
20260506193016 68 315 8.0 17.0 0.00 0.00 0.00 79 1007.9
20260506192017 68 293 8.0 19.0 0.00 0.00 0.00 80 1008.1
20260506191016 67 293 5.0 13.0 0.00 0.00 0.00 81 1008.1
20260506190017 67 293 8.0 21.0 0.00 0.00 0.00 81 1008.2
20260506185036 67 293 4.0 12.0 0.00 0.00 0.00 82 1008.2
20260506184016 66 315 6.0 16.0 0.00 0.00 0.00 82 1008.3
20260506183018 66 293 5.0 11.0 0.00 0.00 0.00 82 1008.3
20260506182016 66 270 7.0 16.0 0.00 0.00 0.00 83 1008.6
20260506181016 66 270 6.0 18.0 0.00 0.00 0.00 83 1008.4
20260506180016 65 270 5.0 11.0 0.00 0.00 0.00 84 1008.5
20260506175016 66 315 5.0 12.0 0.00 0.00 0.00 83 1008.7
20260506174016 66 293 4.0 10.0 0.00 0.00 0.00 81 1008.6
20260506173036 66 293 3.0 9.0 0.00 0.00 0.00 81 1008.5
20260506172057 66 270 6.0 16.0 0.00 0.00 0.00 80 1008.5
20260506171036 66 270 4.0 20.0 0.00 0.00 0.00 81 1008.8
20260506170016 67 270 5.0 12.0 0.00 0.00 0.00 80 1008.8
20260506165036 67 270 5.0 13.0 0.00 0.00 0.00 80 1008.9
20260506164017 67 315 2.0 8.0 0.00 0.00 0.00 82 1008.9
20260506163016 67 270 3.0 8.0 0.00 0.00 0.00 81 1008.9
20260506162016 67 270 4.0 13.0 0.00 0.00 0.00 79 1009.2
20260506161016 69 293 5.0 12.0 0.00 0.00 0.00 76 1009.6
20260506160139 69 293 5.0 9.0 0.00 0.00 0.00 74 1010.0
20260506155016 69 293 5.0 13.0 0.00 0.00 0.00 73 1009.9
20260506154016 69 293 6.0 11.0 0.00 0.00 0.00 72 1009.9
20260506153017 69 270 7.0 16.0 0.00 0.00 0.00 71 1009.7
20260506152016 69 293 5.0 17.0 0.00 0.00 0.00 71 1009.9
20260506151016 69 293 5.0 11.0 0.00 0.00 0.00 70 1010.0
20260506150016 70 270 3.0 12.0 0.00 0.00 0.00 69 1009.8
20260506145016 70 338 3.0 10.0 0.00 0.00 0.00 69 1009.9
20260506144016 70 293 4.0 13.0 0.00 0.00 0.00 70 1010.1
20260506143016 69 270 3.0 12.0 0.00 0.00 0.00 70 1010.1
20260506142016 69 270 4.0 10.0 0.00 0.00 0.00 69 1010.1
20260506141016 70 338 4.0 10.0 0.00 0.00 0.00 68 1010.1
20260506140016 70 315 5.0 11.0 0.00 0.00 0.00 68 1010.0
20260506135016 70 270 3.0 11.0 0.00 0.00 0.00 69 1009.9
20260506134017 69 293 6.0 12.0 0.00 0.00 0.00 69 1009.9
20260506133016 69 315 5.0 12.0 0.00 0.00 0.00 70 1009.8
20260506132036 68 270 4.0 12.0 0.00 0.00 0.00 71 1010.0
20260506131016 69 293 4.0 14.0 0.00 0.00 0.00 71 1010.1
20260506130015 69 293 4.0 12.0 0.00 0.00 0.00 71 1010.2
20260506125036 68 270 6.0 12.0 0.00 0.00 0.00 72 1010.3
20260506124016 68 270 4.0 12.0 0.00 0.00 0.00 73 1010.2
20260506123016 67 270 6.0 15.0 0.00 0.00 0.00 74 1010.2
20260506122015 67 293 4.0 11.0 0.00 0.00 0.00 74 1010.2
20260506121016 67 270 4.0 10.0 0.00 0.00 0.00 75 1010.1
20260506120015 67 270 4.0 11.0 0.00 0.00 0.00 76 1010.0
20260506115016 66 270 4.0 16.0 0.00 0.00 0.00 77 1010.1
20260506114016 66 315 4.0 10.0 0.00 0.00 0.00 76 1010.0
20260506113015 65 293 2.0 8.0 0.00 0.00 0.00 78 1010.2
20260506112036 65 293 3.0 8.0 0.00 0.00 0.00 79 1010.0
20260506111015 64 270 3.0 8.0 0.00 0.00 0.00 80 1010.1
20260506110015 64 270 5.0 10.0 0.00 0.00 0.00 80 1010.3
20260506105015 63 270 3.0 9.0 0.00 0.00 0.00 81 1010.2
20260506104016 63 293 3.0 9.0 0.00 0.00 0.00 82 1010.1